Regional Weather Roundup
Issued by NWS

Home | Current Version | Previous Version | Graphics & Text | Print | Product List | Glossary On
Versions: 1 2 3 4 5 6 7 8 9 10 11 12 13 14 15 16 17 18 19 20 21 22 23 24 25 26 27 28
000
ASUS45 KBOI 232110
RWRID
WEATHER ROUNDUP FOR IDAHO
NATIONAL WEATHER SERVICE BOISE ID
300 PM MDT THU OCT 23 2014

NOTE: "FAIR" INDICATES FEW OR NO CLOUDS BELOW 12000 FEET
WITH NO SIGNIFICANT WEATHER AND/OR OBSTRUCTIONS TO VISIBILITY

IDZ012-014-232200-
SOUTHWEST IDAHO


CITY           SKY/WX    TMP DP  RH WIND       PRES   REMARKS
BOISE          CLOUDY    62  43  49 SE12      30.01F
CALDWELL       CLOUDY    61  43  51 SE9       30.01S
MOUNTAIN HOME  LGT RAIN  62  46  53 SE6       30.02F
$$

IDZ016-017-232200-
SOUTHCENTRAL IDAHO


CITY           SKY/WX    TMP DP  RH WIND       PRES   REMARKS
BURLEY         FAIR      62  34  35 NW8       30.06F
JEROME         PTSUNNY   61  37  41 W10G20    30.07F
TWIN FALLS     PTSUNNY   65  35  33 NW6       30.06F
$$

IDZ019>023-232200-
SOUTHEAST IDAHO


CITY           SKY/WX    TMP DP  RH WIND       PRES   REMARKS
IDAHO FALLS    PTSUNNY   64  32  30 SW14      30.08F
POCATELLO      PTSUNNY   63  30  28 W14       30.09F
REXBURG        CLOUDY    60  30  32 SW16G24   30.07F
$$

IDZ006-010-011-018-031-032-232200-
CENTRAL IDAHO MOUNTAINS


CITY           SKY/WX    TMP DP  RH WIND       PRES   REMARKS
MCCALL         LGT RAIN  46  43  89 SE10      30.01F
HAILEY         CLOUDY    55  39  54 S6        30.10S
STANLEY          N/A     52  36  54 S12G21    30.06F
SALMON         FAIR      63  37  39 S14       29.92F
CHALLIS        CLOUDY    61  32  33 VRB5      29.98F
$$

IDZ002-004-006-007-026-232200-
NORTHERN IDAHO


CITY           SKY/WX    TMP DP  RH WIND       PRES   REMARKS
LEWISTON       PTSUNNY   63  49  60 NW9       29.82R
LOWELL           N/A     53  51  93 N3        29.87F
COEUR D`ALENE  PTSUNNY   52  50  93 SE5       29.78F
MULLAN PASS    HVY RAIN  40  40 100 S15G31    29.83S VSB 3/4 WCI  32
$$



USA.gov is the U.S. government's official web portal to all federal, state and local government web resources and services.